Regional Weather Roundup
Issued by NWS San Diego, CA

Home | Current Version | Previous Version | Text Only | Print | Product List | Glossary On
Versions: 1 2 3 4 5 6 7 8 9 10 11 12 13 14 15 16 17 18 19 20 21 22 23 24 25 26 27 28 29 30 31 32 33 34 35 36 37 38 39 40 41 42 43 44 45 46 47 48 49 50
000
ASUS46 KSGX 070911
RWRSGX

SAN DIEGO HOURLY WEATHER ROUNDUP
NATIONAL WEATHER SERVICE SAN DIEGO CA
200 AM PDT TUE JUL 07 2015

NOTE: "FAIR" INDICATES FEW OR NO CLOUDS BELOW 12,000 FEET WITH NO
SIGNIFICANT WEATHER AND/OR OBSTRUCTIONS TO VISIBILITY.

CAZ042-043-060-061-PZZ750-775-071000-

GREATER SAN DIEGO AREA

CITY           SKY/WX    TMP DP  RH WIND       PRES   REMARKS
LINDBERGH FLD  CLOUDY    67  59  75 CALM      30.00F
POINT LOMA       N/A     64  60  86 W7          N/A
NATIONAL CITY    N/A     67  62  84 CALM      29.99F
CHULA VISTA      N/A     66  62  86 CALM      29.93S
IMPERIAL BEACH CLOUDY    66  60  81 W3        29.99F
BROWN FIELD    CLOUDY    64  60  87 W6        29.99F
MIRAMAR MCAS   CLOUDY    68  59  73 W3        29.99F
MONTGOMERY FLD CLOUDY    66  59  78 W3        29.99F

$$

NORTH SAN DIEGO COUNTY

CITY           SKY/WX    TMP DP  RH WIND       PRES   REMARKS
CAMP PENDLETON CLOUDY    67  59  75 CALM      29.99S
OCEANSIDE AP   CLOUDY    67  60  78 CALM      29.98S
OCEANSIDE HBR    N/A     66  62  86 CALM      30.01F
VISTA            N/A     65  60  84 CALM      29.97F
CARLSBAD       CLOUDY    66  60  81 CALM      29.98F
DEL MAR          N/A     65  62  90 CALM      30.01F
LA JOLLA SCRIP   N/A    N/A N/A N/A W2        29.97F
FALLBROOK        N/A     65  64  96 CALM      29.98F
ESCONDIDO        N/A     65  61  87 CALM      30.00F
SAN MARCOS       N/A     63  60  88 CALM      29.97F
POWAY            N/A     65  60  85 CALM      30.00F

$$

EAST SAN DIEGO COUNTY

CITY           SKY/WX    TMP DP  RH WIND       PRES   REMARKS
RAMONA         CLOUDY    63  58  83 CALM      30.00F
SANTEE LAKES     N/A     66  61  85 CALM      29.98F
JAMUL            N/A     63  60  89 CALM      29.97F
DESCANSO N       N/A     58  52  79 E3        29.82F
CAMPO            N/A     53  51  93 CALM      29.99F

$$

ORANGE COUNTY AND THE LOS ANGELES BASIN

CITY           SKY/WX    TMP DP  RH WIND       PRES   REMARKS
JOHN WAYNE AP  CLOUDY    64  60  87 SW3       29.99S
LAKE FOREST FR   N/A     63  57  80 CALM      29.88F
SANTA ANA        N/A     67  61  79 CALM      29.94F
HUNTINGTON BCH   N/A     64  61  91 CALM      30.01F
LOS ALAMITOS   CLOUDY    64  61  89 S3        29.99F
FULLERTON      CLOUDY    67  60  78 CALM      29.98F
LONG BEACH     CLOUDY    67  59  75 S6        29.99S
L.A. AP        CLOUDY    64  60  87 CALM      30.00S
L.A. DOWNTOWN  CLOUDY    66  59  78 CALM      29.99F

$$

THE INLAND EMPIRE

CITY           SKY/WX    TMP DP  RH WIND       PRES   REMARKS
CORONA         CLEAR     59  58  96 CALM      30.00F
CHINO          CLOUDY    64  60  87 W5        30.01S
ONTARIO        MOCLDY    64  58  80 SW6       30.00S
RIVERSIDE AP     N/A    N/A N/A N/A MISG      30.00F
MORENO VALLEY    N/A     61  60  96 CALM      29.95F
MARCH ARB      CLEAR     60  60  99 W3        30.00F
HORSETHIEF CYN   N/A     59  53  81 W2        30.01S
PERRIS           N/A     61  60  95 SE1         N/A
MENIFEE          N/A     63  61  94 S1        30.05F
HEMET EAST       N/A     61  56  82 CALM      29.98F
FRENCH VALLEY  CLOUDY    63  59  88 CALM      30.01F
TEMECULA         N/A     65  62  89 CALM      29.95F

$$

SAN BERNARDINO AND RIVERSIDE COUNTY MOUNTAINS

CITY           SKY/WX    TMP DP  RH WIND       PRES   REMARKS
BIG BEAR AP    CLEAR     46  43  87 CALM      30.28S
ANGELUS OAKS     N/A     61  40  46 CALM      29.77S
PINE COVE        N/A     65  46  50 CALM      29.84F

$$

SOUTHERN DESERT INCLUDING THE COACHELLA VALLEY

CITY           SKY/WX    TMP DP  RH WIND       PRES   REMARKS
PALM SPRINGS   CLEAR     82  60  47 S3        29.84S
THOUSAND PALMS   N/A     83  59  43 NW20      29.79F
PALM DESERT      N/A     81  61  50 N1        28.95S
THERMAL        CLEAR     83  60  45 N10       29.77F
BLYTHE         CLEAR     91  45  20 SW7       29.80R
IMPERIAL AP    CLEAR     85  62  46 SE7       29.77S
EL CENTRO NAS  CLEAR     86  51  29 S6        29.79F
YUMA AZ        CLEAR     85  49  28 SE5       29.81S

$$

UPPER DESERT

CITY           SKY/WX    TMP DP  RH WIND       PRES   REMARKS
VICTORVILLE AP CLEAR     66  46  48 CALM      30.02F
HESPERIA         N/A     68  52  56 W2        29.96S
APPLE VALLEY     N/A     67  51  56 CALM      30.07S
PALMDALE       CLEAR     71  46  40 SW8       30.00F
LANCASTER      CLEAR     74  54  49 W20       29.98F
EDWARDS AFB    CLEAR     72  47  41 SW10      29.96S
DAGGETT        CLEAR     77  45  32 W10       29.94S
29 PALMS N     CLEAR     79  56  45 NW9       30.00R
NEEDLES        CLEAR     91  49  23 W3        29.84S

$$

REGIONAL REPORTS

CITY           SKY/WX    TMP DP  RH WIND       PRES   REMARKS
SANTA BARBARA  CLEAR     63  59  87 CALM      29.97F
SANDBERG       CLEAR     66  50  56 NW25      30.13S
LAS VEGAS NV   CLOUDY    81  60  48 SW5       29.91S
PHOENIX AZ     PTCLDY    93  57  29 W10       29.84S
TIJUANA        DRIZZLE   64  57  77 W6        30.02F
ENSENADA NW      N/A     64  32  30 W8        29.96F

$$

OFFSHORE ISLANDS

CITY           SKY/WX    TMP DP  RH WIND       PRES   REMARKS
CATALINA ARPT  FOG       57  57 100 S3        30.02F VSB 1/4
SAN NICOLAS IS CLOUDY   N/A N/A N/A NW21G28   29.99F

$$

MARINE AND OFFSHORE BUOY REPORTS

STATION/POSITION SKY/WX   TEMP    WIND        PRES    SWELL
                          AIR SEA DIR/SP/G            HT/PER/DIR
                          (F)     (DEG/KT/KT) (MB)    (FT/S/D)
TANNER BANKS               64 63  310/ 16/ 19 1016.4R   2/230/14
S CLEMENTE BASIN           64 68  280/  6/ 10 1015.6F   3/200/14
SAN NICOLAS IS.               64                N/A     3/210/13
SO. S. ROSA ISLA           64 63  310/ 21/ 27 1014.8R   3/14
W. S. BARBARA CH           61 59  320/ 16/ 17 1015.2S   3/230/14
M. S. BARBARA CH           63 62   20/  6/  8 1015.5S
S. MONICA BASIN            64 68  130/  6/ 10 1015.2F   3/270/ 5
S PEDRO CHANNEL               66                N/A     2/170/14
DANA POINT                    69                N/A     2/200/13
OCEANSIDE OFFSHR              69                N/A     2/210/13
TORREY PINES OTR              69                N/A     2/210/13
LA JOLLA 1                 66 70  280/  4/  5 1015.6F
MISSION BAY BUOY              69                N/A     2/200/13
SAN DIEGO BAY                 70              1016.3F
POINT LOMA SOUTH              69                N/A     3/210/13

$$



USA.gov is the U.S. government's official web portal to all federal, state and local government web resources and services.